Date String (YYYY-MM-DD hh:mm:ss) UTC,Instrument flags,absolute air pressure of the measurement (hPa),sample flow rate (lpm),inlet stack bypass flow (lpm),air temperature of the measurement (°C),ambient temperature measured by the external sensor (°C),aerosol sample conditioner tube jacket temperature (°C),OPC LED temperature (°C),internal box temperature (°C),relative humidity of the measurement (%),span deviation,mass concentration of particles derived from Lorenz-Mie calculation of OPC scattering (μg/m³),mass concentration of particles derived from Lorenz-Mie calculation of OPC scattering (μg/m³),mass concentration of particles derived from Lorenz-Mie calculation of OPC scattering (μg/m³)
DateTimeUTC,F1_M11,P_M11,Q1_M11,Q2_M11,T1_M11,T2_M11,T3_M11,T4_M11,T5_M11,U1_M11,ZSPAN_M11,X2_M11,X0_M11,X1_M11
2023-08-07 16:00:00,SystemResetWarning,0834.2,5.00,000.00,029.3,027.6,000.0,037.9,030.9,31.2,-000.6,0008.04,0011.62,0007.50
2023-08-07 16:01:00,SystemResetWarning,0834.3,5.00,000.00,029.3,027.7,000.0,037.9,031.0,30.9,-000.5,0007.97,0011.43,0007.43
2023-08-07 16:02:00,SystemResetWarning,0834.2,5.01,000.00,029.4,027.9,000.0,037.9,031.0,30.6,-000.3,0007.90,0011.29,0007.35
2023-08-07 16:03:00,SystemResetWarning,0834.1,5.00,000.00,029.4,028.0,000.0,037.9,031.0,31.5,-000.5,0007.82,0011.18,0007.30
2023-08-07 16:04:00,SystemResetWarning,0834.1,4.99,000.00,029.4,028.1,000.0,037.9,031.1,31.9,-000.2,0007.72,0010.99,0007.23
2023-08-07 16:05:00,SystemResetWarning,0834.0,4.99,000.00,029.4,028.2,000.0,038.0,031.1,30.2,-000.7,0007.59,0010.56,0007.10
2023-08-07 16:06:00,SystemResetWarning,0834.0,5.00,000.00,029.5,028.3,000.0,038.0,031.2,29.8,-001.1,0007.51,0010.43,0007.00
2023-08-07 16:07:00,SystemResetWarning,0834.0,5.00,000.00,029.5,028.4,000.0,038.0,031.2,29.1,-001.2,0007.46,0010.40,0006.98
2023-08-07 16:08:00,SystemResetWarning,0833.9,5.00,000.00,029.5,028.0,000.0,038.0,031.2,29.2,-001.0,0007.40,0010.30,0006.96
2023-08-07 16:09:00,SystemResetWarning,0833.9,5.00,000.00,029.5,026.3,000.0,037.8,031.0,29.6,-001.0,0007.38,0010.32,0006.93
2023-08-07 16:10:00,SystemResetWarning,0833.9,5.02,000.00,029.5,025.2,000.0,037.7,030.8,29.8,-001.1,0007.43,0010.47,0006.94
2023-08-07 16:11:00,SystemResetWarning,0833.8,5.01,000.00,029.4,025.2,000.0,037.7,030.5,29.1,-001.2,0007.44,0010.51,0006.95
2023-08-07 16:12:00,SystemResetWarning,0833.8,5.00,000.00,029.2,025.5,000.0,037.7,030.4,29.2,-001.1,0007.38,0010.58,0006.90
2023-08-07 16:13:00,SystemResetWarning,0833.8,5.00,000.00,029.2,025.9,000.0,037.8,030.5,29.8,-001.1,0007.34,0010.98,0006.88
2023-08-07 16:14:00,SystemResetWarning,0833.8,5.00,000.00,029.2,026.3,000.0,037.8,030.6,30.7,-000.9,0007.28,0011.01,0006.83
2023-08-07 16:15:00,SystemResetWarning,0833.9,5.00,000.00,029.2,026.6,000.0,037.8,030.7,31.5,-000.9,0007.27,0011.43,0006.80
2023-08-07 16:16:00,SystemResetWarning,0833.9,5.00,000.00,029.2,026.9,000.0,037.8,030.7,30.6,-000.5,0007.31,0011.67,0006.81
2023-08-07 16:17:00,SystemResetWarning,0833.9,4.99,000.00,029.2,027.1,000.0,037.8,030.7,30.7,-000.3,0007.34,0011.76,0006.81
2023-08-07 16:18:00,SystemResetWarning,0834.0,5.00,000.00,029.2,027.4,000.0,037.8,030.8,31.5,-000.5,0007.28,0011.69,0006.75
2023-08-07 16:19:00,SystemResetWarning,0834.1,5.00,000.00,029.2,027.5,000.0,037.8,030.8,31.9,-000.3,0007.21,0011.77,0006.66
2023-08-07 16:20:00,SystemResetWarning,0834.1,5.00,000.00,029.2,027.7,000.0,037.8,030.8,30.9,0000.1,0007.18,0011.90,0006.59
2023-08-07 16:21:00,SystemResetWarning,0834.1,5.00,000.00,029.2,027.8,000.0,037.8,030.9,30.4,0000.2,0007.12,0011.81,0006.53
2023-08-07 16:22:00,SystemResetWarning,0834.0,5.00,000.00,029.3,027.9,000.0,037.8,030.9,30.1,0000.0,0007.06,0011.73,0006.47
2023-08-07 16:23:00,SystemResetWarning,0833.9,4.99,000.00,029.3,028.0,000.0,037.8,030.9,30.7,-000.2,0007.06,0011.54,0006.46
2023-08-07 16:24:00,SystemResetWarning,0834.0,5.00,000.00,029.3,028.1,000.0,037.8,031.0,30.6,-000.3,0007.06,0011.17,0006.45
2023-08-07 16:25:00,SystemResetWarning,0834.1,5.00,000.00,029.3,028.1,000.0,037.8,031.0,30.2,-000.4,0007.05,0011.00,0006.43
2023-08-07 16:26:00,SystemResetWarning,0834.1,5.00,000.00,029.4,028.2,000.0,037.9,031.0,30.6,-000.1,0007.04,0010.78,0006.39
2023-08-07 16:27:00,SystemResetWarning,0834.0,5.00,000.00,029.4,028.2,000.0,037.9,031.1,30.9,-000.1,0006.99,0010.44,0006.34
2023-08-07 16:28:00,SystemResetWarning,0833.8,5.00,000.00,029.4,028.3,000.0,037.9,031.1,31.2,-000.2,0006.90,0010.55,0006.29
2023-08-07 16:29:00,SystemResetWarning,0833.9,5.00,000.00,029.5,028.3,000.0,037.9,031.1,30.0,-000.0,0006.87,0011.35,0006.24
2023-08-07 16:30:00,SystemResetWarning,0834.0,4.99,000.00,029.5,027.7,000.0,037.9,031.1,30.1,0000.0,0006.85,0011.31,0006.22
2023-08-07 16:31:00,SystemResetWarning,0834.0,5.01,000.00,029.5,026.3,000.0,037.8,030.9,30.4,-000.2,0006.82,0011.59,0006.19
2023-08-07 16:32:00,SystemResetWarning,0833.9,5.01,000.00,029.4,026.0,000.0,037.7,030.8,30.7,-000.2,0006.77,0011.55,0006.16
2023-08-07 16:33:00,SystemResetWarning,0833.7,5.01,000.00,029.3,026.2,000.0,037.7,030.7,29.4,0000.6,0006.72,0011.46,0006.10
2023-08-07 16:34:00,SystemResetWarning,0833.6,5.00,000.00,029.3,026.5,000.0,037.8,030.7,30.9,0001.1,0006.65,0011.39,0006.02
2023-08-07 16:35:00,SystemResetWarning,0833.7,5.00,000.00,029.3,026.8,000.0,037.8,030.8,31.0,0000.7,0006.58,0011.30,0005.97
2023-08-07 16:36:00,SystemResetWarning,0833.8,5.00,000.00,029.3,027.1,000.0,037.8,030.8,32.0,0000.6,0006.53,0011.13,0005.93
2023-08-07 16:37:00,SystemResetWarning,0833.8,5.00,000.00,029.3,027.4,000.0,037.8,030.9,32.3,0000.7,0006.49,0011.02,0005.92
2023-08-07 16:38:00,SystemResetWarning,0833.8,4.99,000.00,029.3,027.6,000.0,037.9,031.0,31.6,0000.3,0006.47,0010.98,0005.92
2023-08-07 16:39:00,SystemResetWarning,0833.9,5.00,000.00,029.3,027.8,000.0,037.9,031.0,31.9,0000.3,0006.50,0011.05,0005.94
2023-08-07 16:40:00,SystemResetWarning,0833.9,5.00,000.00,029.4,027.9,000.0,037.9,031.0,29.1,0000.2,0006.53,0010.43,0005.96
2023-08-07 16:41:00,SystemResetWarning,0833.9,5.00,000.00,029.4,028.0,000.0,037.9,031.1,29.3,-000.4,0006.57,0010.45,0005.99
2023-08-07 16:42:00,SystemResetWarning,0833.9,5.00,000.00,029.4,028.1,000.0,037.9,031.1,29.0,-000.1,0006.60,0010.48,0006.02
2023-08-07 16:43:00,SystemResetWarning,0833.9,5.00,000.00,029.5,028.0,000.0,037.9,031.1,28.4,-000.3,0006.64,0010.87,0006.07
2023-08-07 16:44:00,SystemResetWarning,0833.9,4.99,000.00,029.4,026.6,000.0,037.8,030.9,27.8,-000.7,0006.67,0011.17,0006.12
2023-08-07 16:45:00,SystemResetWarning,0833.9,5.00,000.00,029.4,026.0,000.0,037.7,030.8,28.3,-000.9,0006.74,0011.67,0006.20
2023-08-07 16:46:00,SystemResetWarning,0834.0,5.01,000.00,029.3,026.1,000.0,037.7,030.7,28.3,-001.1,0006.78,0011.97,0006.25
2023-08-07 16:47:00,SystemResetWarning,0834.0,5.01,000.00,029.3,026.4,000.0,037.8,030.7,29.1,-001.1,0006.83,0012.13,0006.30
2023-08-07 16:48:00,SystemResetWarning,0834.1,5.00,000.00,029.3,026.7,000.0,037.8,030.8,30.2,-001.4,0006.87,0012.21,0006.32
2023-08-07 16:49:00,SystemResetWarning,0834.2,5.00,000.00,029.3,027.0,000.0,037.8,030.8,29.3,-001.5,0006.89,0012.23,0006.34
2023-08-07 16:50:00,SystemResetWarning,0834.2,5.00,000.00,029.3,027.3,000.0,037.8,030.9,29.4,-001.9,0006.93,0012.02,0006.38
2023-08-07 16:51:00,SystemResetWarning,0834.2,5.00,000.00,029.3,027.5,000.0,037.9,031.0,29.3,-001.4,0006.93,0011.84,0006.38
2023-08-07 16:52:00,SystemResetWarning,0834.2,5.00,000.00,029.3,027.7,000.0,037.9,031.0,27.2,-001.3,0006.89,0011.85,0006.36
2023-08-07 16:53:00,SystemResetWarning,0834.1,5.00,000.00,029.4,027.9,000.0,037.9,031.0,26.3,-001.5,0006.86,0011.36,0006.34
2023-08-07 16:54:00,SystemResetWarning,0834.0,5.00,000.00,029.4,028.0,000.0,037.9,031.1,26.4,-001.3,0006.86,0011.01,0006.32
2023-08-07 16:55:00,SystemResetWarning,0833.9,5.00,000.00,029.4,028.1,000.0,037.9,031.1,27.0,-001.5,0006.83,0010.83,0006.29
2023-08-07 16:56:00,SystemResetWarning,0834.0,4.98,000.00,029.4,026.9,000.0,037.8,031.0,27.6,-001.6,0006.79,0010.33,0006.25
2023-08-07 16:57:00,SystemResetWarning,0834.1,5.01,000.00,029.4,025.9,000.0,037.7,030.8,28.2,-001.5,0006.85,0010.39,0006.29
2023-08-07 16:58:00,SystemResetWarning,0834.0,5.01,000.00,029.3,026.0,000.0,037.7,030.7,28.9,-001.5,0006.94,0010.47,0006.32
2023-08-07 16:59:00,SystemResetWarning,0834.0,5.00,000.00,029.3,026.3,000.0,037.7,030.6,28.8,-001.1,0006.98,0010.49,0006.35
